NVVV

Details ICAO NVVV (VLI)
Name Bauerfield
Region Vanuatu
Timezone Pacific/Efate (UTC+11.0)
Plans Departing 70
Arriving 60
Stats Elevation 70 ft / 21 m (AMSL)
Location -17.698183° 168.317539°
Runways 1
Magnetic Variation 11.560° E
Sunrise 2018-05-20 19:07:45 UTC / 2018-05-21 06:07:45 Local
Sunset 2018-05-21 06:21:40 UTC / 2018-05-21 17:21:40 Local
Advertisement - Login to hide

Runways

ID Width Length Bearing (true) Bearing (mag) Surface Threshold Offset Overrun Length
11 148 ft / 45 m 8,531 ft / 2,600 m 118.01° 106.45° Asphalt 0 ft / 0 m 197 ft / 60 m
29 148 ft / 45 m 8,531 ft / 2,600 m 298.01° 286.45° Asphalt 0 ft / 0 m 197 ft / 60 m

Approach Navaids

Runway Type Ident Frequency Range Bearing (true) Bearing (mag) Slope Elevation
11 Localiser IBF 110.70 MHz 18 nm / 33 km 117.54° 105.98° - 10 ft / 3 m (AMSL)
11 DME IBF 110.70 MHz 18 nm / 33 km - - - 13 ft / 4 m (AMSL)

Map

Weather


0- 5 10 15 20 25 30 35+ Temperature / ° C

Clouds and Precipitation
Forecast for 2018-05-21 00:00 UTC. Updated an hour ago

Ground ~20,000 ft ~40,000 ft Winds

METAR

Not found

TAF

TAF NVVV 201717Z 2018/2118 VRB01KT 9999 SCT020 BKN120 PROB30 INTER 2018/2024 9000 -SHRA BKN018 OVC110 BECMG 2019/2021 08007KT

Frequencies

Tower 118.30 MHz VILA TWR
Approach 118.30 MHz VILA_TOWER APP
Tower 120.70 MHz VILA TWR
Approach 120.70 MHz VILA_TOWER APP
Warning: Do not use this data for real-world aviation or navigation. No guarantee of current accuracy is given.